Home > Time Zones > World Clock > Weather > Germany > Ulm > Past weeks

Flag for Germany Weather past 2 weeks in Ulm, Baden-Württemberg, Germany

Now
91 °F

Passing clouds.


Feels Like: 92 °F
Forecast: 67 / 80 °F
Wind: 6 mph from Southwest

Location: Laupheim Airport

Current Time: Jul 5, 2015 at 7:58:02 PM

Latest Report: Jul 5, 2015 at 7:20 PM


Visibility: N/A

Pressure: 30.01 "Hg

Humidity: 38%

Dew point: 63 °F

Location of UlmLocation

Historic Weather in Ulm — Graph

°F

Ulm temperature yesterday

Maximum temperature yesterday: 90 °F (at 2:20 PM)
Minimum temperature yesterday: 61 °F (at 5:20 AM)
Average temperature yesterday: 77 °F

Past Weeks' High & Low Weather Summary

 TemperatureHumidityPressure
High93 °F (Jul 5, 2:20 PM)100% (Jun 22, 3:20 AM)30.30 "Hg (Jun 22, 3:20 AM)
Low46 °F (Jun 25, 5:20 AM)32% (Jul 5, 5:20 PM)29.74 "Hg (Jun 22, 9:20 PM)
Average66 °F69%30.14 "Hg
* Reported Jun 20 6:20 PM — Jul 5 6:20 PM, Ulm, Weather by CustomWeather, © 2015

Note: Actual official high and low records may vary slightly from our data, if they occured in-between our weather recording intervals... More about our weather records

Advertising

Ulm weather history for previous 24 hours

 ConditionsComfort  
Time TempWeatherWind HumidityBarometerVisibility
6:20 PM
Sun, Jul 5
93 °FPassing clouds.6 mph32%30.01 "HgN/A
5:20 PM93 °FPassing clouds.7 mph32%30.01 "HgN/A
4:20 PM93 °FPassing clouds.5 mph36%30.04 "HgN/A
3:20 PM93 °FPassing clouds.2 mph34%30.07 "HgN/A
2:20 PM93 °FPassing clouds.2 mph39%30.07 "HgN/A
1:20 PM90 °FPassing clouds.6 mph43%30.07 "HgN/A
12:20 PM88 °FPassing clouds.2 mph49%30.09 "HgN/A
11:20 AM86 °FPassing clouds.2 mph49%30.09 "HgN/A
10:20 AM81 °FPassing clouds.1 mph58%30.12 "HgN/A
9:20 AM77 °FWarm.3 mph69%30.12 "HgN/A
8:20 AM73 °FMild.2 mph78%30.12 "HgN/A
7:20 AM70 °FMild.3 mph83%30.12 "HgN/A
6:20 AM66 °FPassing clouds.2 mph88%30.12 "HgN/A
5:20 AM66 °FPassing clouds.1 mph88%30.12 "HgN/A
4:20 AM68 °FPassing clouds.3 mph83%30.15 "HgN/A
3:20 AM66 °FPassing clouds.2 mph88%30.15 "HgN/A
2:20 AM68 °FPassing clouds.2 mph88%30.15 "HgN/A
1:20 AM70 °FPassing clouds.2 mph83%30.15 "HgN/A
12:20 AM72 °FPassing clouds.3 mph83%30.15 "HgN/A
11:20 PM
Sat, Jul 4
75 °FPassing clouds.3 mph74%30.18 "HgN/A
10:20 PM79 °FPartly sunny.3 mph65%30.18 "HgN/A
9:20 PM81 °FPartly sunny.2 mph62%30.18 "HgN/A
8:20 PM82 °FPartly sunny.3 mph55%30.18 "HgN/A
7:20 PM84 °FScattered clouds.3 mph55%30.18 "HgN/A
Weather by CustomWeather, © 2015

See weather overviewHow to use our weather pages